Location: Baia Mare
(47.6567°N, 23.5850°E)
Time: 17:55:49
(UTC+02:00)

ISS - Pass Details

Date: 04 February 2018
Orbit: 402 x 407 km, 51.6° (Epoch: 25 February)

Event Time Altitude Azimuth Distance (km) Brightness Sun altitude
Rises 18:27:50 0° 278° (W) 2,317 1.5 -9.9°
Reaches altitude 10° 18:30:00 10° 287° (WNW) 1,459 0.0 -10.2°
Maximum altitude 18:33:05 39° 358° (N) 624 -3.0 -10.7°
Enters shadow 18:35:15 17° 61° (ENE) 1,111 -2.2 -11.1°
